[[{"header":{"parameterUnit":"m.s-1","parameterCategory":1,"la1":30.2991,"la2":30.254,"lo1":-89.0895,"lo2":-89.0444,"dy":0.0017,"dx":0.0017,"nx":28,"ny":28,"refTime":"2024-06-24T21:00:00:Z","depth":0,"parameterNumber":2,"parameterNumberName":"U-component_of_WINDS"},"data":[0,0,0,0,0,0,0,0,0,0,0,0,0,0,0,0,0,0,0,0,0,0,0,0,0,0,0,0,0,0,0,0,0,0,0,0,0,0,0,0,0,0,0,0,0,0,0,0,0,0,0,0,0,0,0,0,0,0,5.4024,5.4026,0,5.4226,5.4229,5.4231,5.4193,5.4189,5.4185,5.4182,5.4393,5.4401,5.441,0,0,0,0,0,0,0,0,0,0,0,0,0,5.3607,5.3615,5.4024,5.4027,5.4029,5.4226,5.4229,5.4232,5.4193,5.4189,5.4184,5.418,5.439,5.44,5.4411,0,0,0,0,0,0,0,0,0,0,0,0,0,5.3797,5.3618,5.4024,5.4034,5.4037,5.4226,5.4229,5.4232,5.4194,5.4189,5.4183,5.4178,5.4386,5.4399,5.4412,5.4605,0,0,5.4454,5.446,0,0,0,0,0,0,0,0,5.3786,5.3812,5.403,5.4033,5.4037,5.4179,5.4159,5.4357,5.4196,5.4135,5.4182,5.4176,5.4326,5.4344,5.4394,5.4615,5.4624,5.4455,5.4463,5.4469,5.4473,0,0,0,0,0,0,0,5.3773,5.3803,5.4104,5.4033,5.4037,5.4029,5.405,5.4196,5.4259,5.4139,5.4137,5.4161,5.4327,5.4381,5.4399,5.4627,5.4455,5.4467,5.4475,5.448,5.5015,5.5021,0,0,0,0,0,0,5.3756,5.3793,5.4098,5.411,5.3895,5.4041,5.4064,5.4139,5.4257,5.4269,5.4166,5.4159,5.4361,5.4383,5.4406,5.4639,5.4469,5.4481,5.4489,5.5009,5.5017,5.5023,0,0,0,0,0,0,5.3747,5.3784,5.409,5.3951,5.3989,5.4054,5.4138,5.4146,5.42,5.4277,5.4288,5.421,5.4357,5.4387,5.4555,5.4645,5.4488,5.45,5.5002,5.5012,5.502,5.5106,0,0,0,0,0,0,5.3736,5.3781,5.3854,5.3953,5.3997,5.4235,5.4143,5.4154,5.4223,5.4216,5.4321,5.4333,5.4355,5.4535,5.4569,5.4661,5.451,5.4994,5.5006,5.5017,5.5095,5.5117,5.5135,0,0,0,0,0,5.3721,5.3871,5.3858,5.3895,5.409,5.424,5.4266,5.4287,5.423,5.4305,5.4354,5.433,5.463,5.4553,5.459,5.4688,5.4989,5.5003,5.5016,5.5086,5.5112,5.5135,0,0,0,0,0,0,5.3783,5.3884,5.3871,5.4057,5.414,5.4234,5.4328,5.4315,5.4416,5.4405,5.4429,5.4453,5.4624,5.4673,5.4585,5.488,5.4802,5.4823,5.4842,5.4868,5.4887,5.4872,5.4522,0,0,0,0,0,5.3818,5.3931,5.4014,5.4171,5.4213,5.4263,5.433,5.4339,5.4427,5.4462,5.4524,5.461,5.4724,5.4799,5.4908,5.5102,5.5124,5.5188,5.5208,5.5224,5.5242,5.5348,5.5377,5.5069,5.5068,5.5068,0,0,5.3892,5.3962,5.4032,5.4185,5.425,5.4367,5.4293,5.4421,5.4508,5.4482,5.4644,5.4692,5.479,5.4972,5.5056,5.5019,5.5332,5.5241,5.5253,5.5264,5.5365,5.5394,5.542,5.5078,5.5076,5.5075,0,0,5.4087,5.4151,5.4288,5.4355,5.4454,5.4487,5.4519,5.4615,5.4646,5.4809,5.4791,5.4896,5.5091,5.5162,5.5223,5.5444,5.5425,5.5479,5.5584,5.5686,5.5711,5.5732,5.5811,5.5838,5.5497,5.5498,5.5498,0,5.4167,5.4342,5.436,5.4489,5.4557,5.4537,5.4676,5.4741,5.4871,5.4919,5.4875,5.5119,5.5184,5.5382,5.5436,5.5486,5.5525,5.5467,5.5705,5.5727,5.5748,5.5823,5.5852,5.5503,5.5503,5.5502,5.5502,0,5.4435,5.4556,5.4655,5.478,5.4859,5.4993,5.5032,5.511,5.5113,5.515,5.5316,5.5393,5.5517,5.5565,5.5569,5.5764,5.5737,5.57,5.5621,5.5783,5.5853,5.5882,5.5512,5.551,5.5508,5.5507,0,0,5.4675,5.4807,5.4843,5.4899,5.5007,5.5102,5.5235,5.5355,5.5421,5.5512,5.5623,5.5789,5.5754,5.5824,5.5836,5.5927,5.6096,5.5878,5.588,5.5915,5.6314,5.6341,5.6374,5.6084,5.609,5.6094,5.6306,0,5.4879,5.5112,5.5132,5.5342,5.5454,5.5437,5.5552,5.5631,5.567,5.5771,5.5814,5.5931,5.5877,5.5918,5.6007,5.6056,5.6176,5.6042,5.6189,5.6194,5.6164,5.6411,5.6441,5.6637,5.6333,5.6338,5.6342,0,5.5149,5.5246,5.5466,5.5557,5.5605,5.5708,5.5819,5.5917,5.6006,5.6028,5.6105,5.6105,5.6242,5.6158,5.6347,5.6255,5.6317,5.635,5.6358,5.6372,5.6277,5.6432,5.67,5.6729,5.6385,5.6382,5.6379,0,5.5301,5.5487,5.5642,5.5691,5.5801,5.5874,5.5924,5.6008,5.6078,5.6176,5.6222,5.6334,5.6396,5.6484,5.6514,5.645,5.6702,5.6621,5.6724,5.6723,5.6777,5.6774,5.7058,5.6818,5.6818,5.6817,5.6817,0,5.5527,5.5662,5.5712,5.5807,5.5958,5.5981,5.613,5.6176,5.6251,5.6355,5.6348,5.6446,5.648,5.6585,5.661,5.6762,5.6791,5.6812,5.6817,5.6813,5.681,5.6853,5.684,5.6825,5.6823,5.6822,5.682,0,5.5722,5.5761,5.5929,5.6019,5.6045,5.6153,5.623,5.6323,5.6359,5.6491,5.6524,5.6582,5.6704,5.6743,5.6892,5.6908,5.7086,5.7079,5.7055,5.7056,5.7156,5.7146,5.7479,5.7523,5.7254,5.7257,5.7259,0,5.5864,5.5967,5.6068,5.6137,5.6189,5.63,5.6371,5.6398,5.6472,5.6581,5.6661,5.6782,5.688,5.7077,5.7132,5.7246,5.7241,5.735,5.7258,5.725,5.7242,5.7235,5.7245,5.7367,5.737,5.7372,5.7374,0,5.611,5.6124,5.6226,5.6336,5.6421,5.6509,5.6593,5.665,5.6689,5.6774,5.6898,5.6974,5.7124,5.7244,5.736,5.7411,5.74,5.7402,5.7432,5.7428,5.741,5.742,5.7102,5.7395,5.7392,5.7391,5.739,5.7389,5.6283,5.6373,5.6458,5.6572,5.6638,5.6717,5.6808,5.6855,5.6959,5.7083,5.7092,5.7227,5.7313,5.7466,5.7524,5.7629,5.7598,5.7642,5.7653,5.7663,5.767,5.7393,5.7651,5.765,5.765,5.7649,5.7649,0,5.6528,5.6581,5.6686,5.6804,5.6894,5.6874,5.6966,5.7043,5.7161,5.7242,5.7338,5.748,5.7597,5.7661,5.7777,5.785,5.7847,5.7879,5.7874,5.7886,5.7692,5.7654,5.7879,5.7879,5.7879,5.7879,5.7879,5.7879,5.6667,5.6818,5.6842,5.7027,5.7079,5.721,5.7264,5.7337,5.7401,5.756,5.7656,5.7697,5.7772,5.7893,5.7999,5.8015,5.8058,5.8093,5.8106,5.7923,5.79,5.7877,5.7842,5.8102,5.8103,5.8291,5.8292,5.8294]},{"header":{"parameterUnit":"m.s-1","parameterCategory":1,"la1":30.2991,"la2":30.254,"lo1":-89.0895,"lo2":-89.0444,"dy":0.0017,"dx":0.0017,"nx":28,"ny":28,"refTime":"2024-06-24T21:00:00:Z","depth":0,"parameterNumber":3,"parameterNumberName":"V-component_of_WINDS"},"data":[0,0,0,0,0,0,0,0,0,0,0,0,0,0,0,0,0,0,0,0,0,0,0,0,0,0,0,0,0,0,0,0,0,0,0,0,0,0,0,0,0,0,0,0,0,0,0,0,0,0,0,0,0,0,0,0,0,0,-0.062,-0.062,0,-0.0639,-0.0639,-0.0639,-0.0676,-0.0676,-0.0677,-0.0678,-0.0696,-0.0695,-0.0695,0,0,0,0,0,0,0,0,0,0,0,0,0,-0.0615,-0.0615,-0.062,-0.062,-0.0621,-0.0639,-0.0639,-0.0639,-0.0676,-0.0676,-0.0677,-0.0678,-0.0696,-0.0696,-0.0695,0,0,0,0,0,0,0,0,0,0,0,0,0,-0.0624,-0.0615,-0.062,-0.0641,-0.0643,-0.0639,-0.0639,-0.0639,-0.0675,-0.0676,-0.0677,-0.0679,-0.0696,-0.0696,-0.0695,-0.0672,0,0,-0.0694,-0.0694,0,0,0,0,0,0,0,0,-0.0623,-0.0624,-0.0638,-0.0639,-0.0642,-0.0656,-0.0644,-0.065,-0.0675,-0.0663,-0.0678,-0.0679,-0.0682,-0.0682,-0.0684,-0.0673,-0.0674,-0.0694,-0.0694,-0.0694,-0.0694,0,0,0,0,0,0,0,-0.0622,-0.0623,-0.0627,-0.0638,-0.064,-0.0649,-0.0651,-0.0645,-0.0666,-0.0664,-0.0667,-0.0669,-0.0683,-0.0684,-0.0684,-0.0674,-0.0694,-0.0694,-0.0694,-0.0694,-0.0644,-0.0643,0,0,0,0,0,0,-0.0619,-0.0622,-0.0627,-0.0628,-0.0635,-0.0648,-0.0651,-0.065,-0.0666,-0.067,-0.0668,-0.067,-0.0684,-0.0685,-0.0685,-0.0658,-0.0694,-0.0694,-0.0694,-0.0646,-0.0644,-0.0643,0,0,0,0,0,0,-0.0619,-0.0619,-0.0626,-0.0626,-0.0628,-0.0647,-0.0646,-0.065,-0.0651,-0.0669,-0.0673,-0.0665,-0.0685,-0.0685,-0.0675,-0.0659,-0.0694,-0.0693,-0.0647,-0.0645,-0.0644,-0.0605,0,0,0,0,0,0,-0.0618,-0.0619,-0.061,-0.0626,-0.0627,-0.0616,-0.0645,-0.065,-0.0651,-0.0654,-0.0667,-0.067,-0.0686,-0.0675,-0.0675,-0.066,-0.0693,-0.0648,-0.0646,-0.0644,-0.0607,-0.0602,-0.0597,0,0,0,0,0,-0.0618,-0.0598,-0.0609,-0.061,-0.0617,-0.0615,-0.0616,-0.0634,-0.0649,-0.0641,-0.0652,-0.067,-0.0661,-0.0674,-0.0673,-0.0658,-0.0649,-0.0647,-0.0644,-0.061,-0.0603,-0.0597,0,0,0,0,0,0,-0.058,-0.0601,-0.0613,-0.0598,-0.0604,-0.0621,-0.0611,-0.0626,-0.0628,-0.0631,-0.0654,-0.0656,-0.0643,-0.065,-0.0663,-0.0636,-0.0658,-0.0655,-0.0632,-0.0626,-0.0621,-0.0619,-0.0693,0,0,0,0,0,-0.057,-0.0567,-0.0585,-0.0569,-0.0572,-0.0591,-0.059,-0.0604,-0.0611,-0.0614,-0.0625,-0.0631,-0.063,-0.0628,-0.0628,-0.0609,-0.0612,-0.0598,-0.0593,-0.0589,-0.0586,-0.0576,-0.057,-0.0635,-0.0635,-0.0635,0,0,-0.0549,-0.056,-0.0556,-0.0562,-0.0569,-0.0564,-0.0593,-0.0587,-0.0584,-0.0613,-0.0604,-0.0612,-0.062,-0.0605,-0.0599,-0.061,-0.0569,-0.0586,-0.0582,-0.0581,-0.0572,-0.0566,-0.0561,-0.0633,-0.0633,-0.0633,0,0,-0.0508,-0.0516,-0.0504,-0.051,-0.052,-0.0533,-0.053,-0.0544,-0.0551,-0.0542,-0.0564,-0.056,-0.0558,-0.0563,-0.0565,-0.0526,-0.0542,-0.0526,-0.0498,-0.0488,-0.0483,-0.0478,-0.0464,-0.0458,-0.0523,-0.0523,-0.0523,0,-0.048,-0.0475,-0.0496,-0.0489,-0.049,-0.0517,-0.0505,-0.051,-0.0519,-0.0519,-0.0532,-0.053,-0.0537,-0.0523,-0.0514,-0.0515,-0.0512,-0.0524,-0.0482,-0.0478,-0.0474,-0.046,-0.0455,-0.0521,-0.0521,-0.0521,-0.0521,0,-0.044,-0.0436,-0.0425,-0.0433,-0.0434,-0.0424,-0.0443,-0.0441,-0.0455,-0.0466,-0.0457,-0.0467,-0.0469,-0.0467,-0.048,-0.0455,-0.0462,-0.0478,-0.05,-0.0465,-0.0453,-0.0448,-0.0517,-0.0518,-0.0519,-0.0519,0,0,-0.0374,-0.0395,-0.0391,-0.0395,-0.0408,-0.0405,-0.0396,-0.0399,-0.0396,-0.0402,-0.0395,-0.0392,-0.0408,-0.041,-0.0424,-0.0415,-0.0383,-0.0433,-0.0433,-0.0422,-0.0355,-0.0342,-0.0335,-0.0395,-0.0394,-0.0393,-0.0354,0,-0.0336,-0.0322,-0.0341,-0.0323,-0.0319,-0.0346,-0.0338,-0.0345,-0.0355,-0.0353,-0.0365,-0.0362,-0.0383,-0.0385,-0.0377,-0.0389,-0.037,-0.0392,-0.0387,-0.0387,-0.0383,-0.0329,-0.0315,-0.0278,-0.0349,-0.0349,-0.0348,0,-0.0288,-0.0292,-0.0274,-0.0288,-0.0287,-0.028,-0.0284,-0.0282,-0.029,-0.0298,-0.0301,-0.0318,-0.031,-0.0333,-0.0322,-0.0337,-0.0336,-0.0342,-0.0341,-0.034,-0.0364,-0.0326,-0.0266,-0.026,-0.0341,-0.0341,-0.0342,0,-0.0241,-0.0241,-0.0231,-0.0233,-0.025,-0.0244,-0.0251,-0.026,-0.0261,-0.0264,-0.0264,-0.0267,-0.0268,-0.0269,-0.0286,-0.0301,-0.0273,-0.0297,-0.0279,-0.0278,-0.027,-0.027,-0.0209,-0.0272,-0.0272,-0.0272,-0.0272,0,-0.0195,-0.0183,-0.021,-0.0203,-0.019,-0.0212,-0.0198,-0.0207,-0.0215,-0.021,-0.0233,-0.0228,-0.0252,-0.0249,-0.0263,-0.0251,-0.0252,-0.0257,-0.0261,-0.0255,-0.0254,-0.0254,-0.0256,-0.0271,-0.0271,-0.0271,-0.0271,0,-0.014,-0.0157,-0.0147,-0.0164,-0.0168,-0.0157,-0.0171,-0.0165,-0.0178,-0.0171,-0.0171,-0.019,-0.0188,-0.0205,-0.0207,-0.0216,-0.0197,-0.0206,-0.0194,-0.0197,-0.0177,-0.0178,-0.0112,-0.0104,-0.0173,-0.0173,-0.0172,0,-0.0109,-0.01,-0.0116,-0.0114,-0.012,-0.0117,-0.0118,-0.0139,-0.0139,-0.0148,-0.014,-0.0141,-0.0141,-0.0137,-0.015,-0.0152,-0.016,-0.0137,-0.016,-0.0154,-0.0158,-0.0158,-0.0157,-0.0131,-0.013,-0.013,-0.0129,0,-0.0051,-0.0061,-0.0061,-0.0064,-0.0064,-0.0067,-0.0072,-0.007,-0.0093,-0.0091,-0.009,-0.009,-0.0092,-0.0091,-0.0095,-0.0101,-0.0118,-0.0122,-0.0117,-0.011,-0.0104,-0.0106,-0.018,-0.0123,-0.0124,-0.0124,-0.0124,-0.0125,-0.0007,0.0,-0.001,-0.0009,-0.0015,-0.0019,-0.0014,-0.0026,-0.0025,-0.0028,-0.0041,-0.0037,-0.0046,-0.0053,-0.0057,-0.0054,-0.0065,-0.0059,-0.0058,-0.0055,-0.0051,-0.0105,-0.0055,-0.0055,-0.0056,-0.0056,-0.0056,0,0.005,0.0043,0.0043,0.0037,0.0038,0.002,0.0014,0.0016,0.002,0.0013,0.0012,0.0014,0.0015,0.0001,-0.0,0.0005,-0.0003,0.0005,0.0005,0.0004,-0.0042,-0.0045,0.0012,0.0012,0.0012,0.0012,0.0012,0.0012,0.008,0.0091,0.0081,0.0088,0.008,0.0084,0.0082,0.0078,0.0073,0.0076,0.0076,0.0067,0.0057,0.0055,0.0055,0.0051,0.0052,0.0063,0.0057,0.0014,0.0007,0.0001,-0.0002,0.0063,0.0063,0.0103,0.0103,0.0103]}]]